JL1RTQ-13 Weather Reports


Display with metric or nautical units.
time (UTC)temp
F
wind
direction
speed
MPH
gust
MPH
rain 1hr
in
rain 24hr
in
rain mn
in
humidity
%
barometer
mb
20260504194531 54 330 7.0 13.0 0.00 0.22 0.00 51 1017.4
20260504193030 54 291 8.0 13.0 0.00 0.22 0.00 51 1017.1
20260504191533 53 326 6.0 13.0 0.00 0.22 0.00 52 1016.9
20260504190032 53 313 4.0 13.0 0.00 0.22 0.00 53 1016.7
20260504184536 53 281 5.0 15.0 0.00 0.22 0.00 53 1016.4
20260504183036 53 13 7.0 19.0 0.00 0.22 0.00 53 1016.0
20260504181532 53 340 12.0 24.0 0.00 0.22 0.00 54 1015.4
20260504180030 54 309 12.0 32.0 0.00 0.22 0.00 53 1014.9
20260504174532 54 309 8.0 27.0 0.00 0.22 0.00 53 1014.2
20260504173029 54 337 10.0 25.0 0.00 0.22 0.00 52 1014.0
20260504171530 54 336 10.0 23.0 0.00 0.22 0.00 51 1013.7
20260504081533 78 1 11.0 20.0 0.00 0.24 0.24 47 997.8
20260504044532 82 99 5.0 12.0 0.00 0.25 0.24 56 995.0
20260504043044 82 348 3.0 10.0 0.00 0.25 0.24 58 995.3
20260504041535 82 46 7.0 12.0 0.00 0.25 0.24 57 995.1
20260504040029 82 51 5.0 10.0 0.00 0.25 0.24 57 995.6
20260504034528 81 46 7.0 14.0 0.00 0.25 0.24 59 995.9
20260504033028 81 47 4.0 8.0 0.00 0.25 0.24 59 996.1
20260504031530 79 28 5.0 10.0 0.00 0.25 0.24 62 995.9
20260504030036 80 113 4.0 12.0 0.00 0.25 0.24 61 996.6
20260504024529 79 241 1.0 5.0 0.00 0.25 0.24 62 996.7
20260504023028 78 269 2.0 4.0 0.00 0.25 0.24 62 996.9
20260504021540 77 195 2.0 5.0 0.00 0.25 0.24 65 997.2
20260504020037 75 60 1.0 5.0 0.00 0.25 0.24 69 997.2
20260504014530 73 21 2.0 7.0 0.00 0.25 0.24 73 997.5
20260504013035 72 20 4.0 8.0 0.00 0.25 0.24 72 997.6
20260504011528 72 51 2.0 8.0 0.00 0.25 0.24 72 997.6
20260504010032 71 55 3.0 7.0 0.00 0.25 0.24 73 997.8
20260504004541 70 281 2.0 7.0 0.00 0.25 0.24 74 998.1
20260504003030 69 20 3.0 8.0 0.00 0.25 0.24 75 998.1
20260504001535 68 50 3.0 6.0 0.00 0.25 0.24 76 998.4
20260504000031 67 298 3.0 7.0 0.00 0.25 0.24 78 998.3
20260503234534 66 249 1.0 4.0 0.00 0.25 0.24 80 998.4
20260503233027 65 13 3.0 6.0 0.00 0.25 0.24 81 998.3
20260503231532 64 6 4.0 7.0 0.00 0.25 0.24 82 998.0
20260503230030 64 8 3.0 9.0 0.00 0.25 0.24 82 998.3
20260503224529 63 318 4.0 6.0 0.00 0.25 0.24 83 998.0
20260503223028 62 337 3.0 6.0 0.00 0.25 0.24 85 997.8
20260503221534 62 307 3.0 9.0 0.00 0.25 0.24 86 997.8
20260503220037 61 293 3.0 8.0 0.00 0.25 0.24 87 998.1
20260503214546 61 335 6.0 11.0 0.00 0.25 0.24 88 997.6
20260503213034 61 304 4.0 9.0 0.00 0.25 0.24 89 997.5
20260503211531 61 281 5.0 9.0 0.01 0.25 0.24 90 997.6
20260503210028 61 311 3.0 10.0 0.09 0.25 0.24 91 997.6
20260503204532 61 302 6.0 11.0 0.18 0.25 0.24 91 997.7
20260503203031 62 285 6.0 9.0 0.21 0.25 0.24 89 997.0
20260503201530 67 292 5.0 10.0 0.21 0.24 0.23 87 997.4
20260503200031 68 215 6.0 16.0 0.12 0.15 0.14 91 997.7